Temperature
20 20 20 20 20 20 20 21 21 21 20 20 20 20 20 19 19 19 19 19 19 19 19 19 19 19 19 18 18 18 19 19 19 18 18 18 18 17 17 17 17 17 17
21 20 20 20 20 20 20 21 21 21 20 20 20 20 20 20 19 19 19 19 19 19 19 19 19 19 19 19 19 19 19 19 18 18 18 17 17 17 17 17 17 17 17
21 20 20 20 20 20 20 20 20 20 20 20 20 20 20 20 20 19 19 19 19 19 19 19 19 19 19 19 19 19 19 18 18 18 17 17 17 17 17 17 17 17 17
21 20 20 20 20 20 20 20 20 20 20 20 20 20 20 20 19 19 19 19 19 19 19 19 19 19 19 19 19 19 18 18 18 18 17 17 17 17 17 17 17 17 17
21 20 20 20 20 20 20 20 20 20 20 20 20 20 20 19 19 19 19 19 19 19 19 19 19 19 19 19 19 18 18 18 18 18 17 17 17 17 17 17 17 17 17
20 20 20 20 20 20 20 20 20 20 20 19 19 19 19 19 19 19 19 19 19 19 19 19 19 19 19 19 19 18 18 18 18 18 17 17 17 17 17 17 17 17 17
21 20 20 20 20 20 20 20 20 19 19 19 19 19 19 19 19 19 19 19 19 19 19 19 19 19 19 19 18 18 18 18 18 17 17 17 17 17 17 17 17 17 17
21 20 20 20 20 20 20 20 19 19 19 19 19 19 19 19 19 19 18 18 18 18 18 18 18 19 19 19 18 18 18 18 18 18 17 17 17 17 17 17 17 17 17
21 20 20 20 20 20 20 19 19 19 19 19 19 19 19 19 18 18 18 18 18 18 18 18 18 19 19 19 18 18 18 18 18 18 18 18 17 17 17 17 17 17 18
20 20 20 20 20 20 20 20 19 19 19 19 19 18 18 18 18 18 18 18 18 18 18 18 18 18 18 18 18 18 18 18 18 18 18 18 17 17 17 17 17 17 18
20 20 20 20 20 20 20 19 19 19 19 19 19 19 18 18 18 18 18 18 18 18 18 18 18 18 18 18 18 18 18 18 18 18 18 18 18 17 17 17 17 17 17
20 20 20 20 20 20 19 19 19 19 19 19 19 19 18 18 18 18 18 18 18 18 18 18 18 18 18 18 18 18 18 18 18 18 18 18 17 17 17 17 17 17 17
20 20 20 19 19 19 19 19 19 19 18 18 18 18 18 18 18 18 18 18 17 17 17 17 17 17 17 17 18 18 18 18 18 18 18 18 18 17 17 17 17 17 17
20 19 19 19 19 19 19 19 19 18 18 18 18 18 18 17 18 17 17 17 17 17 17 17 17 17 17 17 17 17 17 18 18 18 18 18 18 17 17 17 17 17 17
19 19 19 19 19 19 19 18 18 18 18 18 17 17 17 17 17 17 17 17 17 17 17 17 17 17 17 17 17 17 17 17 17 17 18 18 18 17 17 17 17 17 17
19 19 19 19 18 18 18 18 18 17 17 17 17 17 17 17 17 16 16 16 16 17 17 17 17 17 17 16 17 17 17 17 17 17 17 18 18 17 17 17 17 17 17
19 19 18 18 18 18 18 17 17 17 17 17 17 17 16 16 16 16 16 16 16 16 16 16 16 16 16 16 16 16 16 16 17 17 17 17 17 17 17 17 17 17 17
18 18 18 18 18 17 17 17 17 17 17 17 16 16 16 15 15 15 15 15 15 15 15 15 15 15 16 15 16 16 16 16 16 16 16 17 17 17 17 17 17 17 17
18 18 18 18 18 17 17 17 17 17 16 16 16 16 15 15 15 15 15 14 14 15 15 15 15 15 15 15 15 15 15 16 16 16 16 16 17 17 17 17 17 17 17
18 18 18 18 17 17 17 17 16 16 16 16 15 15 15 15 14 14 14 14 14 14 14 14 14 14 14 14 14 15 15 15 15 16 16 16 16 17 17 17 17 17 17
18 18 18 18 17 17 17 16 16 16 15 15 15 15 14 14 14 14 14 13 13 13 13 13 13 13 13 13 14 14 15 15 15 15 16 16 16 16 16 17 17 17 17
18 18 18 17 17 17 16 16 16 15 15 14 14 14 14 13 13 13 13 13 13 13 13 13 13 13 13 13 13 13 14 14 15 15 15 15 15 15 16 16 16 16 17
18 18 18 17 17 16 16 15 15 15 14 14 13 13 13 13 12 12 12 12 12 12 12 12 12 12 12 12 12 12 12 13 13 14 15 15 15 15 15 15 16 16 16
18 18 17 17 16 16 15 15 14 14 14 13 13 12 12 12 11 11 11 11 11 11 12 12 12 12 12 12 12 12 12 12 12 13 14 14 14 14 15 15 15 16 16
18 17 17 17 16 16 15 15 14 14 13 13 12 12 11 11 11 11 11 11 11 11 11 11 11 11 11 11 11 11 12 12 12 11 12 13 14 14 14 15 15 15 16
18 17 17 17 16 15 15 14 14 13 12 12 11 11 11 11 10 10 10 10 10 10 10 11 11 11 11 11 11 11 11 11 11 11 11 12 13 14 14 14 15 15 15
Wind_Speed
7 10 17 18 19 19 20 20 20 20 20 19 19 19 19 18 18 17 16 14 13 12 11 10 9 8 9 9 10 11 12 13 13 13 13 14 14 15 16 16 16 16 19
11 14 18 18 18 19 19 20 19 19 19 19 18 18 18 18 17 16 15 14 13 11 10 10 9 9 9 10 10 11 12 12 12 12 13 13 14 15 15 16 16 15 18
13 14 17 18 18 18 19 19 18 18 17 17 17 17 17 16 15 15 14 13 12 11 10 10 9 9 9 9 10 10 11 11 11 11 11 11 13 14 15 15 16 17 18
13 13 15 18 17 17 18 18 17 17 16 16 16 15 15 14 14 13 13 12 12 11 10 9 9 9 9 9 9 10 10 10 10 10 8 8 10 14 15 15 16 16 17
11 12 16 18 17 16 16 16 16 15 15 14 14 13 13 13 12 12 11 11 10 10 10 9 9 9 9 9 9 9 9 9 10 8 6 6 8 14 15 16 16 16 16
10 12 15 17 16 16 15 15 15 14 13 13 12 12 12 11 11 11 10 10 9 9 9 9 8 8 8 9 9 8 8 9 8 6 5 5 8 13 15 15 15 16 16
11 10 14 16 15 15 14 14 14 13 12 12 11 11 11 10 10 10 10 9 9 9 9 10 9 9 9 9 9 9 8 8 7 6 6 6 8 13 15 15 16 15 16
11 9 13 15 15 14 13 13 13 12 12 11 11 11 10 10 10 10 9 9 9 9 10 10 10 10 9 9 9 9 8 8 7 6 7 9 11 13 15 15 16 16 16
8 7 8 11 12 13 12 12 11 11 11 10 10 10 10 10 10 10 10 10 10 11 10 11 11 11 11 10 10 9 9 9 6 6 8 9 13 15 15 16 16 16 16
7 6 5 7 8 8 9 10 10 10 9 9 9 9 9 10 10 10 10 11 11 11 12 12 12 13 12 12 11 11 10 10 7 7 7 10 14 16 17 17 18 17 17
7 4 4 5 5 6 5 7 8 8 9 9 8 8 9 8 8 8 10 11 12 12 13 14 14 14 14 13 13 13 11 8 8 7 7 10 14 17 18 19 19 19 19
8 6 3 3 3 4 4 4 4 4 5 6 5 6 5 5 6 7 8 11 12 13 13 14 15 15 14 12 13 14 11 10 9 9 10 12 15 17 20 21 21 21 21
6 6 5 3 3 3 1 1 2 2 2 4 5 5 5 5 5 6 6 7 8 10 10 11 12 13 12 12 11 12 12 11 11 11 12 15 17 18 21 22 23 23 23
7 5 4 4 3 2 1 0 1 1 1 2 4 5 4 3 3 3 3 5 5 5 7 7 7 10 11 13 13 13 13 12 12 12 14 17 18 20 21 23 24 25 25
7 5 4 3 3 2 1 1 1 1 1 2 2 2 3 2 1 2 2 3 4 4 5 5 5 6 6 9 12 13 13 14 15 15 14 18 20 21 22 24 25 26 27
6 6 5 4 3 3 2 2 1 1 1 2 2 2 1 1 1 1 2 2 3 3 4 4 5 5 5 5 8 10 11 13 15 15 15 17 20 22 23 24 26 27 28
6 5 5 4 4 4 3 2 2 2 2 2 2 2 2 1 0 0 1 1 2 3 4 3 4 3 4 5 7 8 8 11 12 15 16 16 16 20 23 24 26 27 29
5 5 4 4 5 5 4 3 3 3 3 2 2 2 2 2 1 0 0 2 3 3 2 2 2 3 4 5 6 7 7 8 11 13 15 16 16 17 20 23 25 26 29
6 6 5 5 5 4 4 3 3 3 3 3 3 2 2 2 2 0 1 2 3 2 2 2 2 2 3 5 6 7 7 8 10 11 12 15 17 18 17 19 23 25 28
4 5 5 4 4 4 3 3 2 3 2 3 2 3 3 3 3 2 1 2 3 2 2 2 3 2 3 4 6 7 7 8 9 10 12 11 14 17 18 18 18 19 25
4 5 5 4 3 3 2 2 1 0 1 2 2 4 4 4 5 3 2 3 2 2 3 3 2 3 3 2 3 5 5 7 9 9 9 9 11 13 15 16 16 16 16
6 6 5 4 3 2 1 1 1 0 1 2 3 4 5 6 6 4 3 3 3 3 4 3 1 1 2 2 2 3 4 4 3 6 7 8 9 8 10 14 14 15 16
7 7 6 6 4 3 2 2 2 2 2 3 3 3 5 7 7 5 5 3 3 3 3 3 2 2 2 2 2 2 2 3 4 3 4 6 6 6 7 7 11 15 17
8 6 5 5 4 4 3 2 2 2 2 3 3 3 5 6 6 6 5 4 3 3 4 4 3 3 2 3 2 3 4 3 3 4 3 3 5 6 7 8 9 12 16
6 5 5 5 4 3 3 3 3 3 3 3 3 5 5 5 6 6 6 4 3 3 3 4 3 3 3 3 3 2 3 3 4 4 5 4 4 4 6 7 8 8 13
5 5 5 5 4 3 3 3 4 5 5 5 5 5 5 4 5 5 5 4 4 3 4 4 4 4 4 4 4 3 3 3 2 3 5 6 6 5 5 6 7 8 10
Wind_Direction
151 156 151 145 137 132 127 123 121 121 121 122 125 130 135 138 142 145 148 148 148 146 141 135 128 124 122 120 118 117 118 120 122 122 122 122 122 122 122 122 121 121 121
144 153 151 146 140 135 130 127 126 126 127 128 129 132 136 140 143 146 149 151 151 150 146 140 135 132 129 127 125 125 125 127 128 128 127 127 127 127 128 127 125 128 126
140 149 150 147 143 138 134 131 131 131 132 133 135 138 141 144 147 151 153 156 156 155 152 147 142 139 137 134 133 133 135 135 134 131 124 126 133 133 133 132 132 132 130
138 142 148 148 145 142 139 136 136 137 138 140 141 144 147 150 153 156 158 160 161 161 158 156 151 147 146 144 142 141 142 141 137 129 121 130 140 141 140 139 138 137 135
132 138 151 150 149 147 145 142 142 143 144 146 148 151 154 157 161 163 165 166 167 167 166 165 162 158 156 155 153 152 151 149 143 134 129 133 143 149 147 146 145 143 141
130 139 152 151 152 152 151 150 149 149 152 155 158 161 164 167 171 174 175 177 180 180 177 176 174 171 169 168 167 166 164 164 150 145 148 146 152 158 155 154 152 150 148
133 138 150 152 154 156 158 158 157 158 162 166 169 173 177 180 183 186 190 193 196 195 192 189 188 186 184 184 183 181 181 180 156 162 174 173 173 170 165 163 160 158 156
135 133 147 153 157 160 164 166 168 170 173 178 182 185 189 193 196 199 203 209 211 212 209 204 201 199 199 199 198 196 198 199 183 179 185 187 188 184 178 173 170 167 165
125 123 133 150 159 164 168 173 177 179 183 188 193 197 200 204 208 212 217 221 222 223 223 218 215 213 211 211 212 211 210 213 190 188 195 194 196 194 190 184 180 177 174
114 111 115 130 143 155 168 179 183 187 193 199 205 211 213 217 221 225 229 232 235 234 233 230 228 226 223 220 221 222 221 222 210 204 204 201 202 202 200 194 189 187 184
138 116 108 115 126 139 160 187 193 198 203 208 214 222 228 234 240 245 245 241 244 244 243 241 239 236 233 230 229 230 229 222 213 214 215 214 211 210 208 203 198 195 192
157 156 134 129 130 141 172 190 200 211 216 219 224 232 236 239 246 254 261 258 258 257 255 252 248 243 240 236 235 234 229 220 218 222 224 226 223 219 215 211 205 201 199
150 161 151 148 151 161 180 166 197 218 235 235 232 233 235 235 243 253 261 270 276 276 271 267 260 246 236 231 231 231 229 225 224 227 228 228 228 227 222 217 211 207 204
132 140 134 143 143 158 170 141 191 211 254 259 251 239 231 238 246 254 255 260 270 280 281 276 267 256 242 237 232 231 232 231 231 232 231 230 229 229 228 222 217 212 208
122 115 107 118 128 124 111 53 74 1 304 297 299 280 240 239 265 269 276 280 278 282 283 281 274 270 259 248 241 237 234 233 235 233 235 234 233 231 231 229 225 218 213
115 111 108 103 95 94 96 83 72 62 24 27 13 11 0 237 243 263 279 280 287 291 287 285 281 276 270 262 255 248 241 236 237 236 236 239 239 235 232 232 230 224 218
109 106 109 111 97 100 98 85 88 77 62 45 7 23 40 60 33 276 295 308 310 310 306 299 289 279 274 266 262 257 251 244 239 237 238 238 240 240 237 233 231 228 223
115 112 108 110 102 98 96 85 81 73 60 35 20 28 30 32 63 90 309 299 312 323 315 301 294 291 276 270 266 263 257 251 246 241 238 236 236 239 239 236 232 228 225
136 134 130 127 124 113 103 92 86 77 52 28 20 16 8 16 22 35 291 300 318 322 315 307 303 281 282 280 273 265 256 252 250 248 241 237 234 234 234 235 233 230 228
148 150 149 147 138 121 101 82 63 51 29 24 15 1 0 5 7 6 328 328 330 320 314 311 298 285 271 279 282 276 262 253 248 244 242 239 235 234 231 230 231 232 230
178 180 176 169 170 145 118 114 101 14 337 344 346 351 355 357 355 346 328 316 309 288 279 286 290 301 295 296 297 296 280 256 248 243 239 240 238 235 230 226 225 225 228
199 202 201 197 188 175 145 136 141 145 289 290 316 334 347 348 342 334 311 298 288 279 285 283 259 292 295 310 296 308 313 313 282 247 237 238 241 237 233 229 225 222 222
212 209 207 205 200 194 166 116 75 38 357 336 327 325 329 333 331 326 310 289 279 252 259 262 236 231 267 290 255 262 299 302 316 290 251 244 243 240 239 234 229 226 223
219 211 204 199 200 201 179 175 181 197 256 263 277 292 305 314 317 317 312 300 281 264 260 261 237 221 227 267 287 250 247 260 284 306 299 270 260 251 247 244 238 230 224
214 202 198 194 204 205 195 193 198 230 244 272 288 293 298 304 305 304 304 301 288 271 263 259 253 230 219 232 247 266 268 264 249 269 293 308 303 271 256 247 242 234 227
197 188 182 185 208 214 215 217 217 242 260 278 284 286 289 294 295 293 292 288 283 276 270 263 254 246 234 235 242 241 243 257 267 263 279 299 299 288 274 250 238 234 229
Height
1517 1520 1523 1526 1529 1531 1533 1534 1536 1537 1539 1540 1541 1543 1544 1545 1547 1548 1549 1549 1550 1551 1552 1552 1553 1554 1554 1555 1555 1555 1556 1557 1557 1557 1558 1559 1560 1561 1562 1563 1564 1565 1567
1516 1521 1524 1527 1530 1532 1534 1536 1537 1539 1540 1541 1543 1544 1545 1546 1547 1548 1549 1550 1551 1552 1553 1554 1554 1555 1555 1556 1556 1557 1557 1558 1558 1559 1560 1561 1561 1563 1564 1565 1566 1567 1569
1517 1521 1525 1528 1531 1534 1536 1537 1539 1540 1542 1543 1544 1545 1546 1547 1548 1549 1550 1551 1552 1553 1554 1555 1555 1556 1556 1557 1557 1558 1559 1559 1560 1561 1561 1562 1563 1565 1566 1567 1568 1569 1571
1519 1523 1526 1530 1533 1535 1537 1539 1540 1542 1543 1544 1545 1546 1547 1548 1549 1550 1551 1552 1553 1554 1555 1556 1556 1557 1557 1558 1558 1559 1560 1561 1561 1562 1563 1564 1565 1566 1567 1569 1570 1571 1573
1520 1524 1528 1531 1534 1536 1539 1540 1542 1543 1544 1545 1546 1547 1548 1549 1550 1551 1552 1553 1554 1555 1556 1557 1557 1558 1558 1559 1560 1560 1561 1562 1563 1564 1565 1566 1567 1568 1569 1570 1572 1573 1574
1521 1525 1529 1532 1535 1537 1540 1541 1543 1544 1545 1546 1547 1548 1549 1550 1551 1552 1553 1554 1555 1556 1556 1557 1558 1559 1559 1560 1561 1561 1562 1563 1564 1565 1566 1567 1568 1569 1570 1572 1573 1575 1576
1522 1526 1530 1533 1536 1539 1541 1542 1544 1545 1546 1547 1548 1549 1549 1550 1551 1552 1553 1554 1555 1556 1557 1557 1558 1559 1560 1560 1561 1562 1563 1564 1565 1566 1567 1568 1569 1570 1571 1573 1574 1576 1577
1524 1528 1531 1534 1537 1539 1542 1543 1545 1546 1546 1547 1548 1549 1550 1550 1551 1552 1553 1554 1555 1556 1557 1557 1558 1559 1560 1560 1561 1562 1563 1564 1565 1566 1567 1568 1569 1570 1572 1573 1575 1576 1578
1526 1529 1532 1535 1538 1540 1542 1544 1545 1546 1547 1547 1548 1549 1549 1550 1551 1551 1552 1553 1554 1555 1556 1557 1557 1558 1559 1560 1561 1562 1563 1564 1565 1566 1567 1568 1569 1570 1572 1573 1575 1576 1578
1528 1531 1533 1536 1538 1540 1542 1544 1545 1546 1547 1547 1548 1549 1549 1550 1550 1551 1551 1552 1553 1554 1554 1555 1556 1557 1558 1559 1560 1561 1562 1563 1564 1565 1566 1568 1569 1570 1571 1573 1574 1576 1578
1529 1532 1534 1536 1538 1540 1542 1544 1545 1545 1546 1547 1547 1548 1548 1548 1549 1549 1550 1551 1551 1552 1552 1553 1554 1555 1556 1557 1558 1559 1560 1561 1562 1563 1565 1566 1567 1569 1570 1571 1573 1575 1577
1530 1532 1535 1537 1539 1540 1542 1543 1544 1545 1545 1546 1546 1546 1547 1547 1547 1548 1548 1548 1549 1550 1550 1551 1552 1552 1553 1554 1555 1556 1557 1558 1559 1560 1562 1564 1565 1567 1568 1570 1571 1573 1575
1531 1533 1535 1537 1539 1540 1542 1543 1543 1544 1544 1545 1544 1545 1545 1545 1545 1545 1545 1546 1546 1547 1547 1547 1548 1549 1549 1550 1551 1552 1553 1554 1555 1557 1558 1560 1562 1564 1565 1567 1569 1570 1573
1532 1534 1536 1537 1539 1540 1541 1542 1542 1543 1543 1543 1543 1543 1543 1543 1543 1543 1543 1543 1543 1543 1544 1544 1544 1545 1545 1546 1547 1547 1548 1549 1550 1552 1554 1556 1558 1560 1561 1563 1565 1567 1570
1533 1534 1536 1537 1538 1539 1540 1540 1541 1541 1541 1541 1541 1541 1540 1541 1541 1540 1540 1540 1540 1539 1539 1539 1539 1540 1540 1541 1541 1542 1543 1544 1545 1546 1548 1550 1552 1554 1556 1559 1561 1563 1566
1532 1534 1535 1536 1537 1538 1538 1539 1539 1540 1540 1539 1539 1539 1538 1538 1538 1538 1537 1537 1536 1535 1535 1534 1534 1535 1535 1535 1535 1536 1537 1538 1539 1541 1542 1544 1546 1548 1551 1553 1556 1558 1561
1532 1533 1534 1535 1536 1537 1537 1538 1538 1538 1538 1538 1537 1536 1536 1535 1535 1535 1534 1533 1532 1531 1531 1530 1530 1529 1529 1529 1529 1530 1530 1531 1532 1534 1536 1538 1539 1541 1544 1547 1549 1552 1555
1532 1533 1534 1535 1535 1536 1537 1537 1537 1537 1537 1536 1536 1535 1534 1533 1532 1532 1531 1530 1529 1528 1527 1526 1525 1524 1524 1523 1523 1523 1524 1524 1525 1527 1528 1530 1532 1534 1536 1539 1542 1546 1549
1532 1533 1534 1534 1535 1536 1536 1536 1536 1536 1536 1535 1534 1533 1532 1531 1530 1529 1528 1527 1526 1525 1524 1523 1521 1520 1519 1518 1517 1517 1517 1517 1518 1519 1520 1522 1524 1526 1529 1532 1535 1539 1542
1532 1533 1534 1535 1535 1535 1535 1536 1536 1535 1534 1533 1532 1531 1530 1528 1527 1526 1525 1524 1523 1522 1521 1519 1518 1517 1515 1514 1512 1511 1511 1511 1511 1511 1512 1514 1516 1518 1521 1524 1528 1531 1535
1532 1533 1534 1534 1534 1535 1535 1535 1534 1533 1533 1531 1530 1528 1527 1525 1524 1522 1521 1520 1519 1518 1517 1516 1515 1513 1512 1510 1509 1506 1505 1505 1504 1504 1505 1506 1508 1510 1513 1516 1520 1524 1527
1531 1532 1533 1533 1534 1534 1533 1533 1532 1531 1530 1529 1527 1525 1523 1521 1520 1518 1517 1516 1515 1514 1514 1513 1512 1510 1509 1508 1506 1504 1501 1501 1499 1499 1499 1500 1501 1503 1505 1507 1511 1515 1520
1530 1531 1532 1532 1532 1532 1531 1531 1530 1528 1527 1526 1524 1522 1520 1518 1516 1514 1512 1511 1511 1510 1510 1509 1508 1507 1506 1506 1504 1504 1501 1498 1496 1495 1495 1495 1495 1496 1498 1500 1504 1508 1512
1529 1530 1530 1530 1530 1530 1529 1528 1527 1525 1524 1522 1520 1518 1516 1514 1512 1510 1509 1508 1507 1506 1505 1505 1505 1504 1503 1502 1502 1501 1500 1499 1497 1493 1491 1491 1491 1492 1493 1494 1497 1500 1504
1527 1528 1528 1528 1528 1527 1526 1525 1524 1522 1520 1518 1516 1514 1513 1511 1509 1507 1505 1504 1503 1502 1501 1501 1500 1500 1499 1499 1498 1497 1496 1495 1494 1492 1489 1488 1488 1488 1488 1489 1491 1494 1497
1525 1525 1525 1525 1525 1524 1523 1522 1520 1518 1516 1514 1512 1510 1509 1507 1505 1503 1501 1499 1498 1497 1497 1496 1496 1495 1495 1494 1494 1493 1493 1492 1491 1489 1487 1485 1484 1484 1484 1485 1486 1488 1491